SCP
0 0 0 0 0 0 0 0 0 0 0 0 0 0 0 0 0 0 0 1 1 1 1 1 1 1 1 1 1 1 1 1 1 1 1 1 1 0 0 0 0 0 0 0
0 0 0 0 0 0 0 0 0 0 0 0 0 0 0 0 0 0 0 0 0 0 1 1 1 1 1 1 1 1 1 1 1 1 1 0 0 0 0 0 0 0 0 0
0 0 0 0 0 0 0 0 0 0 0 0 0 0 0 0 0 0 0 0 0 0 0 0 0 0 0 0 0 0 0 0 0 0 0 0 0 0 0 0 0 0 0 0
0 0 0 0 0 0 0 0 0 0 0 0 0 0 0 0 0 0 0 0 0 0 0 0 0 0 0 0 0 0 0 0 0 0 0 0 0 0 0 0 0 0 0 0
0 0 0 0 0 0 0 0 0 0 0 0 0 0 0 0 0 0 0 0 0 0 0 0 0 0 0 0 0 0 0 0 0 0 0 0 0 0 0 0 0 0 0 0
0 0 0 0 0 0 0 0 0 0 0 0 0 0 0 0 0 0 0 0 0 0 0 0 0 0 0 0 0 0 0 0 0 0 0 0 0 0 0 0 0 0 0 0
0 0 0 0 0 0 0 0 0 0 0 0 0 0 0 0 0 0 0 0 0 0 0 0 0 0 0 0 0 0 0 0 0 0 0 0 0 0 0 0 0 0 0 0
0 0 0 0 0 0 0 0 0 0 0 0 0 0 0 0 0 0 0 0 0 0 0 0 0 0 0 0 0 0 0 0 0 0 0 0 0 0 0 0 0 0 0 0
0 0 0 0 0 0 0 0 0 0 0 0 0 0 0 0 0 0 0 0 0 0 0 0 0 0 0 0 0 0 0 0 0 0 0 0 0 0 0 0 0 0 0 0
0 0 0 0 0 0 0 0 0 0 0 0 0 0 0 0 0 0 0 0 0 0 0 0 0 0 0 0 0 0 0 0 0 0 0 0 0 0 0 0 0 0 0 0
0 0 0 0 0 0 0 0 0 0 0 0 0 0 0 0 0 0 0 0 0 0 0 0 0 0 0 0 0 0 0 0 0 0 0 0 0 0 0 0 0 0 0 0
0 0 0 0 0 0 0 0 0 0 0 0 0 0 0 0 0 0 0 0 0 0 0 0 0 0 0 0 0 0 0 0 0 0 0 0 0 0 0 0 0 0 0 0
0 0 0 0 0 0 0 0 0 0 0 0 0 0 0 0 0 0 0 0 0 0 0 0 0 0 0 0 0 0 0 0 0 0 0 0 0 0 0 0 0 0 0 0
0 0 0 0 0 0 0 0 0 0 0 0 0 0 0 0 0 0 0 0 0 0 0 0 0 0 0 0 0 0 0 0 0 0 0 0 0 0 0 0 0 0 0 0
0 0 0 0 0 0 0 0 0 0 0 0 0 0 0 0 0 0 0 0 0 0 0 0 0 0 0 0 0 0 0 0 0 0 0 0 0 0 0 0 0 0 0 0
0 0 0 0 0 0 0 0 0 0 0 0 0 0 0 0 0 0 0 0 0 0 0 0 0 0 0 0 0 0 0 0 0 0 0 0 0 0 0 0 0 0 0 0
0 0 0 0 0 0 0 0 0 0 0 0 0 0 0 0 0 0 0 0 0 0 0 0 0 0 0 0 0 0 0 0 0 0 0 0 0 0 0 0 0 0 0 0
0 0 0 0 0 0 0 0 0 0 0 0 0 0 0 0 0 0 0 0 0 0 0 0 0 0 0 0 0 0 0 0 0 0 0 0 0 0 0 0 0 0 0 0
0 0 0 0 0 0 0 0 0 0 0 0 0 0 0 0 0 0 0 0 0 0 0 0 0 0 0 0 0 0 0 0 0 0 0 0 0 0 0 0 0 0 0 0
0 0 0 0 0 0 0 0 0 0 0 0 0 0 0 0 0 0 0 0 0 0 0 0 0 0 0 0 0 0 0 0 0 0 0 0 0 0 0 0 0 0 0 0
0 0 0 0 0 0 0 0 0 0 0 0 0 0 0 0 0 0 0 0 0 0 0 0 0 0 0 0 0 0 0 0 0 0 0 0 0 0 0 0 0 0 0 0
0 0 0 0 0 0 0 0 0 0 0 0 0 0 0 0 0 0 0 0 0 0 0 0 0 0 0 0 0 0 0 0 0 0 0 0 0 0 0 0 0 0 0 0
0 0 0 0 0 0 0 0 0 0 0 0 0 0 0 0 0 0 0 0 0 0 0 0 0 0 0 0 0 0 0 0 0 0 0 0 0 0 0 0 0 0 0 0
0 0 0 0 0 0 0 0 0 0 0 0 0 0 0 0 0 0 0 0 0 0 0 0 0 0 0 0 0 0 0 0 0 0 0 0 0 0 0 0 0 0 0 0
0 0 0 0 0 0 0 0 0 0 0 0 0 0 0 0 0 0 0 0 0 0 0 0 0 0 0 0 0 0 0 0 0 0 0 0 0 0 0 0 0 0 0 0
0 0 0 0 0 0 0 0 0 0 0 0 0 0 0 0 0 0 0 0 0 0 0 0 0 0 0 0 0 0 0 0 0 0 0 0 0 0 0 0 0 0 0 0
Wind_Speed
3 3 3 6 7 5 2 2 4 3 1 6 7 8 10 10 11 11 10 9 9 8 7 8 8 8 7 6 5 4 3 1 2 1 0 1 1 2 2 3 5 5 5 5
5 3 7 5 4 4 3 2 2 1 2 4 5 7 7 10 9 8 8 8 8 8 9 10 9 8 7 6 5 6 5 4 3 2 1 0 1 0 0 1 2 2 3 4
4 6 3 1 0 2 3 3 3 2 1 3 3 4 4 5 7 8 9 8 8 8 7 8 8 8 8 7 6 6 6 5 5 3 1 1 2 2 1 1 1 1 1 2
3 5 2 1 1 2 3 3 2 2 2 1 1 0 2 3 5 7 7 7 7 7 6 5 6 6 6 5 5 5 5 4 4 4 3 2 1 1 1 1 1 2 2 1
4 3 2 2 2 2 2 2 3 2 3 2 4 2 3 2 3 4 4 5 5 5 5 5 4 4 4 4 4 3 3 4 3 3 4 4 1 0 1 1 2 2 2 2
4 3 2 2 2 1 2 4 5 5 5 2 2 1 3 1 1 1 2 3 3 4 4 4 4 3 3 3 2 2 2 2 1 2 2 3 3 2 1 0 1 1 1 1
8 7 5 2 3 5 5 6 6 7 5 3 2 1 3 1 1 0 1 3 3 3 3 3 4 3 3 4 3 2 2 2 2 1 1 2 2 2 2 2 1 1 1 1
3 7 6 4 2 2 2 6 5 3 4 4 2 1 2 1 2 2 1 2 3 4 4 4 5 4 5 5 4 4 4 4 4 3 3 3 3 2 2 3 2 2 2 3
1 5 4 4 3 2 2 3 3 5 1 1 3 2 2 3 3 3 3 3 4 4 5 5 6 5 6 6 5 5 5 6 6 5 5 5 4 4 4 4 4 3 3 3
3 3 5 6 7 8 5 5 4 4 1 2 3 2 3 5 5 4 4 5 5 5 5 6 6 5 6 5 6 6 6 7 7 6 6 5 6 6 6 5 6 5 5 4
2 2 6 7 7 7 7 6 5 4 3 2 2 3 2 3 3 4 5 5 6 6 6 6 6 6 6 6 6 6 7 7 7 7 7 6 7 6 6 6 7 7 6 6
3 5 2 3 2 3 4 4 2 2 1 2 1 3 2 2 2 3 5 6 7 7 7 7 7 7 6 7 7 7 7 7 8 8 7 8 8 7 7 8 8 7 7 7
4 6 4 6 7 7 7 5 4 5 4 2 0 5 1 3 4 5 6 7 8 8 8 7 7 8 8 8 8 8 8 8 9 8 8 8 8 8 9 9 9 8 8 8
6 6 4 2 2 1 4 6 5 5 3 2 3 6 3 5 6 8 8 8 9 9 9 8 8 9 9 10 10 10 10 10 9 8 8 9 9 9 9 9 8 8 8 8
7 6 4 3 4 5 4 5 5 4 1 3 6 5 4 5 7 8 8 9 10 10 10 10 10 9 10 10 10 10 11 10 10 9 9 10 10 9 9 9 9 9 8 10
5 5 3 3 4 6 5 5 3 2 2 3 4 5 4 6 6 7 9 11 11 11 11 11 11 11 11 11 11 11 11 11 10 10 11 11 9 9 9 9 9 8 8 8
3 5 3 2 3 2 2 2 2 3 3 3 4 5 7 9 9 9 10 10 10 11 11 12 12 12 12 12 11 11 12 11 11 11 11 11 10 9 9 9 8 8 8 7
6 5 4 2 1 2 4 2 2 4 4 2 4 6 8 9 9 9 9 8 10 11 11 12 12 12 12 12 12 11 12 12 12 11 12 11 10 10 9 8 8 8 7 7
4 7 5 3 0 3 2 2 2 3 6 3 4 7 8 8 7 7 6 6 9 11 12 12 12 13 13 13 13 12 12 12 12 12 11 11 10 9 9 8 8 7 6 7
7 6 6 3 1 3 4 3 3 1 5 2 3 7 7 7 7 7 7 9 11 12 11 12 12 13 13 13 13 13 14 13 13 12 12 11 9 9 9 8 8 7 6 7
5 6 4 2 1 6 4 3 3 1 7 5 4 6 6 5 7 10 11 11 10 11 13 12 12 13 13 13 13 13 13 13 13 12 11 10 9 9 9 8 7 7 6 6
3 3 1 2 1 6 2 1 1 6 5 4 4 5 6 8 9 10 10 11 12 12 13 13 12 13 13 12 12 14 13 13 12 11 10 10 9 8 8 6 6 6 5 5
4 6 6 6 6 6 2 2 2 2 3 4 4 6 6 7 8 9 9 10 11 12 12 12 13 14 13 12 12 13 13 12 11 10 10 9 9 7 6 6 6 5 4 4
1 3 3 3 6 3 2 2 2 1 2 4 4 5 5 6 9 10 10 10 11 11 12 12 13 14 14 13 12 11 12 11 11 11 10 8 7 6 5 4 4 3 3 3
4 4 2 4 5 3 3 2 2 2 2 3 4 4 5 7 9 9 10 11 11 11 11 11 13 14 15 14 13 12 11 11 11 10 9 8 6 5 5 4 3 3 3 3
5 7 6 6 6 5 5 3 1 1 3 4 4 6 6 6 8 9 10 10 11 12 12 13 14 14 14 14 13 12 11 11 10 8 7 5 5 4 3 3 2 2 3 3
Wind_Direction
28 55 266 242 205 215 236 258 282 284 86 71 74 60 33 28 41 42 42 45 46 41 36 40 39 36 37 31 34 44 58 53 111 109 85 312 223 200 209 220 216 211 211 199
19 296 253 247 201 198 208 245 272 314 80 102 94 69 50 41 41 38 40 39 39 37 35 36 40 40 38 39 39 46 48 37 48 74 42 303 299 340 290 276 254 234 218 203
220 252 284 308 290 177 214 203 222 210 71 73 106 49 38 45 44 41 38 35 35 42 39 31 36 44 44 38 34 50 56 52 46 57 55 23 19 357 359 309 296 297 252 207
258 268 300 320 277 176 255 249 214 171 117 328 65 122 341 20 29 28 22 22 23 26 32 29 29 32 38 33 34 44 58 59 54 73 80 73 82 270 298 300 322 342 358 355
290 301 323 321 292 219 226 44 68 83 120 61 24 107 294 17 14 5 3 8 6 3 10 12 13 17 16 17 17 26 37 44 41 68 93 101 101 174 279 328 357 3 0 6
271 297 278 279 327 40 103 69 57 51 67 42 332 119 285 307 279 296 337 350 347 343 347 343 341 345 338 334 341 356 10 12 4 65 95 124 140 155 150 355 355 358 345 351
339 337 339 340 357 6 56 68 23 2 9 271 311 112 260 292 42 190 291 308 319 320 318 311 305 301 293 290 290 297 299 296 292 265 183 183 179 175 179 197 204 205 244 262
359 320 329 355 356 298 31 117 144 215 240 281 351 303 296 25 39 30 358 321 326 320 306 294 284 280 277 275 274 272 267 264 261 246 238 229 212 206 215 213 211 222 223 231
207 279 314 2 358 50 66 71 143 135 140 314 304 311 3 43 12 357 343 333 323 313 309 303 298 292 286 283 276 265 263 264 261 253 250 249 236 223 227 230 225 228 233 239
175 278 323 333 22 24 68 119 76 91 111 303 317 345 335 336 332 342 349 338 321 316 316 314 310 306 297 288 287 287 273 267 268 264 253 249 242 236 233 230 232 232 236 238
95 99 337 20 31 350 12 37 67 84 116 146 294 307 346 314 336 344 338 331 322 318 315 311 309 305 297 293 286 281 277 272 271 266 261 260 256 249 242 239 240 237 238 236
87 101 24 342 334 26 63 44 76 91 26 93 173 276 343 9 3 348 330 323 316 310 302 299 302 303 300 295 289 280 273 268 266 265 263 259 258 255 247 243 243 237 236 237
104 84 46 356 349 11 34 16 58 95 89 78 355 279 353 7 349 330 316 312 309 305 303 304 307 306 300 295 289 283 278 272 270 266 261 260 257 252 249 248 246 241 237 238
98 77 118 175 259 37 39 20 36 72 71 321 253 267 317 335 322 316 311 304 303 298 300 301 300 299 296 294 290 287 284 279 276 272 266 262 258 251 248 247 247 245 240 238
82 82 69 64 67 88 74 45 42 65 113 236 266 265 277 299 298 296 296 299 304 302 303 301 298 298 297 296 294 292 290 288 284 280 274 267 265 261 256 252 249 246 241 239
69 107 96 65 79 87 67 30 25 7 305 273 283 279 278 302 304 297 295 298 301 301 302 302 302 302 300 298 297 296 293 291 288 283 278 274 269 267 262 257 253 249 246 243
78 114 111 190 227 355 348 321 320 287 261 249 263 274 303 305 300 293 294 300 302 304 303 303 303 300 299 297 295 293 291 291 289 284 282 280 276 273 267 264 259 249 246 243
114 96 105 107 86 270 246 255 272 265 254 229 257 276 286 281 285 285 287 295 299 301 302 303 302 302 299 297 297 295 297 296 291 287 282 278 273 270 268 264 259 253 245 242
98 118 98 91 83 298 272 300 314 282 274 225 270 289 297 304 312 293 289 298 294 299 301 301 301 303 303 302 302 302 301 298 294 291 288 284 277 272 270 266 262 258 251 248
47 71 94 87 60 269 255 285 311 280 294 256 292 298 306 326 324 295 306 308 302 302 303 304 307 308 307 305 305 304 303 301 297 294 291 286 278 274 272 268 266 262 251 248
28 36 70 91 281 273 261 300 36 58 275 296 295 295 302 289 263 284 304 304 300 302 306 308 310 311 309 309 310 308 305 302 299 297 294 289 281 275 272 268 265 261 255 250
145 118 137 123 4 282 260 97 173 234 265 295 294 292 288 281 283 293 300 302 309 312 313 314 314 312 311 312 313 311 308 306 305 302 296 291 285 280 281 270 268 262 254 250
172 182 183 184 216 243 238 216 247 217 267 287 287 290 291 291 293 300 300 305 309 311 313 315 315 315 316 316 316 315 314 313 311 308 303 297 292 285 279 273 270 266 252 241
223 141 137 253 268 254 242 262 296 291 273 286 285 289 293 293 297 304 306 310 313 314 316 317 319 319 320 320 320 317 316 317 314 311 309 305 299 293 288 276 262 256 244 234
207 160 167 260 277 298 268 252 273 295 298 299 302 293 294 297 302 305 309 312 315 317 317 319 321 320 319 320 321 322 321 319 315 311 310 308 302 296 293 281 260 250 242 232
197 174 174 225 227 201 247 253 227 253 285 292 299 303 304 301 302 307 310 311 315 318 320 322 323 321 321 324 323 323 324 322 319 315 315 313 310 307 302 300 305 277 256 262